Location: Deneb Observatory
(47.2267°N, 100.4953°W)
Time: 21:14:37
(UTC-05:00)

Iridium 66 - Visible Passes

Search period start: 30 August 2014 00:00
Search period end: 09 September 2014 00:00
Orbit: 776 x 779 km, 86.4° (Epoch: 30 August)

Date Brightness Start Highest point End Pass type
(mag) Time Alt. Az. Time Alt. Az. Time Alt. Az.
30 Aug 8.0 00:00:00 19° WSW 00:01:49 22° WNW 00:05:52 10° NNW visible
30 Aug 6.9 21:44:38 19° SE 21:47:25 30° E 21:51:55 10° NNE visible
30 Aug 7.3 23:25:05 21° SW 23:28:01 37° W 23:32:52 10° N visible
31 Aug 7.5 21:10:52 10° ESE 21:14:12 18° ENE 21:17:37 10° NE visible
31 Aug 6.3 22:51:19 25° SSW 22:54:21 65° W 22:59:33 10° N visible
01 Sep 5.9 22:17:30 23° S 22:20:49 74° E 22:26:02 10° N visible
01 Sep 8.5 23:58:57 10° WSW 00:02:09 16° WNW 00:05:23 10° NNW visible
02 Sep 6.4 21:43:39 16° SSE 21:47:24 42° E 21:52:17 10° NNE visible
02 Sep 7.9 23:24:05 11° SW 23:28:16 27° WNW 23:32:42 10° NNW visible
03 Sep 7.1 21:09:57 10° SE 21:14:06 25° E 21:18:15 10° NNE visible
03 Sep 6.9 22:50:10 13° SSW 22:54:32 46° W 22:59:33 10° N visible
04 Sep 6.1 22:16:11 13° S 22:20:54 81° W 22:26:09 10° N visible
05 Sep 8.8 00:00:45 10° W 00:02:32 12° WNW 00:04:20 10° NW visible
05 Sep 6.1 21:42:19 10° SSE 21:47:25 59° E 21:52:32 10° N visible
05 Sep 8.4 23:24:48 10° WSW 23:28:34 20° WNW 23:32:22 10° NNW visible
06 Sep 6.7 21:09:25 10° SSE 21:14:02 34° E 21:18:42 10° NNE visible
06 Sep 7.6 22:50:03 10° SW 22:54:44 33° WNW 22:59:27 10° NNW visible
07 Sep 7.3 20:37:06 10° ESE 20:40:47 20° ENE 20:44:30 10° NNE visible
07 Sep 6.6 22:15:56 10° SSW 22:21:02 58° W 22:26:12 10° N visible
08 Sep 5.9 21:42:16 10° S 21:47:28 82° E 21:52:42 10° N visible
08 Sep 8.8 23:26:05 10° WSW 23:28:55 15° WNW 23:31:45 10° NW visible
